Skip Page Navigation
NASA JPL Caltech
NASA Logo - Jet Propulsion Laboratory + View the NASA Portal
+ Near-Earth Object (NEO) Program
Search JPL
JPL Home Earth Solar System Stars & Galaxies Technology
JPL Solar System Dynamics
BODIES ORBITS EPHEMERIDES TOOLS PHYSICAL DATA DISCOVERY FAQ SITE MAP
JPL Small-Body Database Browser
Search: [ help ]  
(2001 VB76)
Classification: Apollo [NEO, PHA]          SPK-ID: 3092491
Ephemeris | Orbit Diagram | Orbital Elements | Physical Parameters | Close-Approach Data ]

[ hide orbit diagram ]
Orbit Diagram
Note: Make sure you have Java enabled on your browser to see the applet. This applet is provided as a 3D orbit visualization tool. The applet was implemented using 2-body methods, and hence should not be used for determining accurate long-term trajectories (over several years or decades) or planetary encounter circumstances. For accurate long-term ephemerides, please instead use our Horizons system.
Orbit Viewer

Additional Notes: the orbits shown in the applet are color coded. The planets are white lines, and the asteroid/comet is a blue line. The bright white line indicates the portion of the orbit that is above the ecliptic plane, and the darker portion is below the ecliptic plane. Likewise for the asteroid/comet orbit, the light blue indicates the portion above the ecliptic plane, and the dark blue the portion below the ecliptic plane.

Orbit Viewer applet originally written and kindly provided by Osamu Ajiki (AstroArts), and further modified by Ron Baalke (JPL).


Orbital Elements at Epoch 2456400.5 (2013-Apr-18.0) TDB
Reference: JPL 11 (heliocentric ecliptic J2000)
 Element Value Uncertainty (1-sigma)   Units 
e .3482170654160797 3.9372e-08  
a 1.458758771448414 2.6381e-08 AU
q .9507940729046814 5.6455e-08 AU
i 4.238417219102899 8.783e-06 deg
node 259.5021892890387 9.4788e-05 deg
peri 248.3726373036659 9.7234e-05 deg
M 117.8234485214246 6.7077e-05 deg
tp 2456189.878415058663
(2012-Sep-19.37841506)
0.00011425 JED
period 643.5371866160741
1.76
1.7457e-05
4.779e-08
d
yr
n .5594082323245312 1.5175e-08 deg/d
Q 1.966723469992146 3.5568e-08 AU
  Orbit Determination Parameters
   # obs. used (total)      127  
   data-arc span      2608 days (7.14 yr)  
   first obs. used      2001-11-11  
   last obs. used      2009-01-01  
   planetary ephem.      DE405  
   SB-pert. ephem.      SB405-CPV-2  
   condition code      0  
   fit RMS      .55976  
   data source      ORB  
   producer      Otto Matic  
   solution date      2011-Oct-08 00:50:19  

Additional Information
 Earth MOID = .042397 AU 
 T_jup = 4.557 
[ show covariance matrix ]

Ephemeris | Orbit Diagram | Orbital Elements | Physical Parameters | Close-Approach Data ]

Physical Parameter Table
Parameter Symbol Value Units Sigma Reference Notes
absolute magnitude H 19.887 mag .92516 11 autocmod 2.5a

[ show close-approach data ]
Ephemeris | Orbit Diagram | Orbital Elements | Physical Parameters | Close-Approach Data ]
ABOUT SSD CREDITS/AWARDS PRIVACY/COPYRIGHT GLOSSARY LINKS
FirstGov 2013-Jun-19 21:38 UT
(server date/time)  
NASA Home Page
Site Manager:   Donald K. Yeomans
Webmaster  Alan B. Chamberlin